Hourly Weather Roundup
Issued by NWS Central Illinois

Home | Current Version | Previous Version | Text Only | Print | Product List | Glossary On
Versions: 1 2 3 4 5 6 7 8 9 10 11 12 13 14 15 16 17 18 19 20 21 22 23 24 25 26 27 28 29 30 31 32 33 34 35 36 37 38 39 40 41 42 43 44 45 46 47 48 49 50
017
NZUS43 KILX 151310
HWRILX

Area Weather Roundup
National Weather Service Lincoln IL
700 AM CST FRI DEC 15 2017

NOTE:  "FAIR" indicates few or no clouds below 12,000 feet, with
       no sigificant weather and/or obstructions to visibility.


CITY           SKY/WX    TMP DP  RH WIND       PRES   REMARKS
Bloomington    CLOUDY    26  21  81 W13       30.00S WCI  15
Champaign      CLOUDY    26  19  74 SW12      30.02S WCI  16
Danville       CLOUDY    25  19  77 SW10      29.98F WCI  14
Decatur        CLOUDY    27  20  75 SW10      30.03F WCI  17
Effingham      CLOUDY    27  21  78 SW3       30.10S
Flora          CLEAR     28  21  72 SW5       30.10F WCI  23
Galesburg      PTCLDY    25  22  90 W8        30.03R WCI  16
Jacksonville   CLOUDY    30  22  72 W8        30.06R WCI  22
Lacon          MOCLDY    27  20  75 W8        30.00S WCI  19
Lawrenceville  CLOUDY    29  19  66 W9        30.10R WCI  20
Litchfield     CLOUDY    29  22  74 SW8       30.07S WCI  21
$$


CITY           SKY/WX    TMP DP  RH WIND       PRES   REMARKS
Lincoln        CLOUDY    30  23  74 W3        30.03S
Macomb         CLOUDY    29  24  80 W10       30.06S WCI  20
Mattoon        CLOUDY    26  20  77 SW8       30.04S WCI  18
Mt Carmel AP   CLOUDY    29  19  66 W12       30.10R WCI  19
Olney-Noble AP PTCLDY    27  18  69 W3        30.10F
Paris AP       CLOUDY    25  20  82 SW8       30.05R WCI  16
Peoria         CLOUDY    29  21  72 W9        30.02S WCI  20
Pontiac        CLOUDY    28  22  78 W15       29.99S WCI  16
Rantoul        CLOUDY    28  21  76 SW10      30.00S WCI  18
Robinson       MOCLDY    25  18  74 W9        30.09F WCI  16
Springfield    CLOUDY    30  22  72 W12       30.05S WCI  20
Taylorville    CLOUDY    28  20  72 SW9       30.05F WCI  19
$$

...REGIONAL REPORTS...


CITY           SKY/WX    TMP DP  RH WIND       PRES   REMARKS
Chicago O`Hare FLURRIES  25  17  72 W8G18     29.91S WCI  16
Kankakee       CLOUDY    27  19  72 W16       29.97S WCI  14
Moline         CLOUDY    28  19  69 W12       30.01R WCI  18
Mount Sterling CLOUDY    30  24  78 W8        30.05S WCI  22
Mount Vernon   PTCLDY    27  21  78 SW5       30.11S WCI  22
Pittsfield     CLOUDY    32  25  74 W6        30.07S WCI  26
Quincy         CLOUDY    31  24  75 NW8       30.06R WCI  23
Rockford       FLURRIES  26  15  63 NW15      29.94S WCI  14
$$


CITY           SKY/WX    TMP DP  RH WIND       PRES   REMARKS
Burlington     PTCLDY    27  23  85 W5        30.04R WCI  22
Cedar Rapids   CLEAR     19  16  88 SW9       29.99R WCI   8
Des Moines     CLOUDY    30  22  72 W8        30.02F WCI  22
Kirksville     CLOUDY    31  27  85 W6        30.08R WCI  25
Ottumwa        PTCLDY    23  20  88 W6        30.04R WCI  16
St Louis       MOCLDY    32  23  69 SW8       30.10S WCI  25
$$


CITY           SKY/WX    TMP DP  RH WIND       PRES   REMARKS
Terre Haute    MOCLDY    26  17  68 SW7       30.05S WCI  18
Evansville     CLOUDY    30  21  69 W6        30.11R WCI  24
Indianapolis   CLOUDY    26  17  68 W12       30.02R WCI  16
Lafayette      CLOUDY    23  18  81 W9        30.00S WCI  13
Madison        FLURRIES  23  16  74 W7        29.89R WCI  15
Milwaukee      FLURRIES  27  16  63 W15G24    29.87R WCI  15
$$






USA.gov is the U.S. government's official web portal to all federal, state and local government web resources and services.